パロマー彗星

C/2019 O3 ( Palomar )

English version
Home page
Updated on September 18, 2021

---------------------------------------------------------------------

・ プロフィール

発見日 2019年7月26日
発見光度 19.3等
発見者 Q.-Z. Ye (Oschin Schmidt telescope, Palomar)

・ 写真集

・ 軌道要素

Epoch 2021 Mar. 7.0 TT = JDT 2459280.5
T 2021 Mar. 7.96679 TT                                  Rudenko
q   8.8194552            (2000.0)            P               Q
z  -0.0002583      Peri.   60.04922     +0.25490772     -0.43681628
 +/-0.0000007      Node   300.38086     -0.73851602     +0.48795103
e   1.0022777      Incl.   89.81517     +0.62419239     +0.75570850
From 535 observations 2019 May 14-2021 Apr. 30, mean residual 0".4.

・ 星図

・ 光度変化

        m1 = -73.5 + 5 logΔ + 90 log r

---------------------------------------------------------------------

軌道要素はM.P.E.C. 2021-J28に掲載されたものです。
星図はステラナビゲータ Ver.10 (アストロアーツ) で作成したものです。
光度グラフはComet for Windowsで作成したものです。

---------------------------------------------------------------------

Copyright(C) Seiichi Yoshida (comet@aerith.net). All rights reserved.